User: anonymous   Login
Location: Chena
(64.8152°N, 147.9227°W)
Time: 08:21:25
(UTC+00:00)
Language:

OBJECT M - Orbit

View from above orbital plane
View from above orbital plane
View from above satellite
View from above satellite

Ground track
Ground track

The orbit data is extracted from the following two-line orbital elements,

1 47320U 21002M   21166.91460864  .00001350  00000-0  70369-4 0  9993
2 47320  60.6834 296.9545 0036973  46.9638 313.4535 15.21678461 22682
Epoch (UTC): 15 June 2021 21:57:02
Eccentricity: 0.0036973
inclination: 60.6834°
perigee height: 475 km
apogee height: 526 km
right ascension of ascending node: 296.9545°
argument of perigee: 46.9638°
revolutions per day: 15.21678461
mean anomaly at epoch: 313.4535°
orbit number at epoch: 2268

The dashed part of the orbit path shows where the satellite is in the earth's shadow,  

DLR